軌道要素
Epoch 2016 Nov. 28.0 TT = JDT 2457720.5
T 2016 Dec. 10.74885 TT Rudenko
q 6.2443114 (2000.0) P Q
z +0.0000856 Peri. 65.74333 -0.08368260 +0.50406403
+/-0.0000002 Node 240.40004 -0.74841556 +0.53775460
e 0.9994652 Incl. 81.34887 +0.65792962 +0.67582501
From 1759 observations 2014 May 8-2020 Jan. 21, mean residual 0".5.
|